TimeCDT,TemperatureF,Dew PointF,Humidity,Sea Level PressureIn,VisibilityMPH,Wind Direction,Wind SpeedMPH,Gust SpeedMPH,PrecipitationIn,Events,Conditions,WindDirDegrees,DateUTC
12:15 AM,-9999,-9999,N/A,-9999,-9999.0,North,-9999.0,-,N/A,,Unknown,0,2013-05-08 05:15:00
12:35 AM,59.4,53.1,80,30.01,-9999.0,Calm,Calm,-,N/A,,Unknown,0,2013-05-08 05:35:00
12:55 AM,59.2,52.2,78,30.01,-9999.0,Calm,Calm,-,N/A,,Unknown,0,2013-05-08 05:55:00
1:15 AM,-9999,-9999,N/A,-9999,-9999.0,North,-9999.0,-,N/A,,Unknown,0,2013-05-08 06:15:00
1:35 AM,58.5,52.2,80,30.00,-9999.0,Calm,Calm,-,N/A,,Unknown,0,2013-05-08 06:35:00
1:55 AM,58.5,52.2,80,30.00,-9999.0,Calm,Calm,-,N/A,,Unknown,0,2013-05-08 06:55:00
2:15 AM,57.2,52.2,83,-9999,-9999.0,North,-9999.0,-,N/A,,Unknown,0,2013-05-08 07:15:00
2:35 AM,58.6,51.8,78,30.00,-9999.0,Calm,Calm,-,N/A,,Unknown,0,2013-05-08 07:35:00
2:55 AM,57.9,51.8,80,29.99,-9999.0,Calm,Calm,-,N/A,,Unknown,0,2013-05-08 07:55:00
3:15 AM,-9999,-9999,N/A,-9999,-9999.0,North,-9999.0,-,N/A,,Unknown,0,2013-05-08 08:15:00
3:35 AM,58.6,51.1,76,29.99,-9999.0,Calm,Calm,-,N/A,,Unknown,0,2013-05-08 08:35:00
3:55 AM,57.9,51.6,80,30.00,-9999.0,Calm,Calm,-,N/A,,Unknown,0,2013-05-08 08:55:00
4:35 AM,57.7,51.8,81,30.00,-9999.0,North,-9999.0,-,N/A,,Unknown,0,2013-05-08 09:35:00
4:55 AM,55.6,52.0,88,30.00,-9999.0,Calm,Calm,-,N/A,,Unknown,0,2013-05-08 09:55:00
5:35 AM,55.8,52.3,88,30.01,-9999.0,North,-9999.0,-,N/A,,Unknown,0,2013-05-08 10:35:00
5:55 AM,55.4,52.3,89,30.01,-9999.0,Calm,Calm,-,N/A,,Unknown,0,2013-05-08 10:55:00
6:35 AM,-9999,-9999,N/A,-9999,-9999.0,North,-9999.0,-,N/A,,Unknown,0,2013-05-08 11:35:00
6:55 AM,54.7,52.2,91,30.03,-9999.0,Calm,Calm,-,N/A,,Unknown,0,2013-05-08 11:55:00
7:15 AM,56.5,53.6,90,30.03,-9999.0,Calm,Calm,-,N/A,,Unknown,0,2013-05-08 12:15:00
7:35 AM,-9999,-9999,N/A,-9999,-9999.0,North,-9999.0,-,N/A,,Unknown,0,2013-05-08 12:35:00
7:55 AM,61.9,54.9,78,30.04,-9999.0,SSE,3.5,-,N/A,,Unknown,160,2013-05-08 12:55:00
8:15 AM,63.7,55.4,74,30.04,-9999.0,SSE,3.5,-,N/A,,Unknown,160,2013-05-08 13:15:00
8:35 AM,-9999,-9999,N/A,-9999,-9999.0,North,-9999.0,-,N/A,,Unknown,0,2013-05-08 13:35:00
8:55 AM,-9999,-9999,N/A,-9999,-9999.0,North,-9999.0,-,N/A,,Unknown,0,2013-05-08 13:55:00
9:15 AM,69.8,56.7,63,30.05,-9999.0,SSW,5.8,-,N/A,,Unknown,210,2013-05-08 14:15:00
9:35 AM,71.1,55.4,58,30.05,-9999.0,SSW,8.1,-,N/A,,Unknown,200,2013-05-08 14:35:00
9:55 AM,-9999,-9999,N/A,-9999,-9999.0,North,-9999.0,-,N/A,,Unknown,0,2013-05-08 14:55:00
10:15 AM,74.5,53.6,48,30.05,-9999.0,South,9.2,-,N/A,,Unknown,180,2013-05-08 15:15:00
10:55 AM,-9999,-9999,N/A,-9999,-9999.0,North,-9999.0,-,N/A,,Unknown,0,2013-05-08 15:55:00
11:15 AM,77.5,52.9,42,30.06,-9999.0,South,9.2,-,N/A,,Unknown,170,2013-05-08 16:15:00
11:35 AM,79.0,53.1,40,30.07,-9999.0,SSW,5.8,-,N/A,,Unknown,210,2013-05-08 16:35:00
11:55 AM,-9999,-9999,N/A,-9999,-9999.0,North,-9999.0,-,N/A,,Unknown,0,2013-05-08 16:55:00
12:15 PM,80.1,52.3,38,30.06,-9999.0,South,10.4,-,N/A,,Unknown,180,2013-05-08 17:15:00
12:35 PM,81.5,51.4,35,30.05,-9999.0,SSE,10.4,-,N/A,,Unknown,160,2013-05-08 17:35:00
1:15 PM,-9999,-9999,N/A,-9999,-9999.0,North,-9999.0,-,N/A,,Unknown,0,2013-05-08 18:15:00
1:35 PM,84.0,52.0,33,30.03,-9999.0,SSE,9.2,-,N/A,,Unknown,150,2013-05-08 18:35:00
1:55 PM,83.7,51.8,33,30.03,-9999.0,SSE,11.5,-,N/A,,Unknown,150,2013-05-08 18:55:00
2:15 PM,-9999,-9999,N/A,-9999,-9999.0,North,-9999.0,-,N/A,,Unknown,0,2013-05-08 19:15:00
2:35 PM,84.0,52.3,33,30.02,-9999.0,South,10.4,-,N/A,,Unknown,180,2013-05-08 19:35:00
2:55 PM,83.5,52.9,35,30.01,-9999.0,South,8.1,-,N/A,,Unknown,170,2013-05-08 19:55:00
3:15 PM,-9999,-9999,N/A,-9999,-9999.0,North,-9999.0,-,N/A,,Unknown,0,2013-05-08 20:15:00
3:35 PM,85.1,52.2,32,29.99,-9999.0,SSE,9.2,-,N/A,,Unknown,150,2013-05-08 20:35:00
3:55 PM,84.7,52.7,33,29.98,-9999.0,SE,8.1,-,N/A,,Unknown,140,2013-05-08 20:55:00
4:15 PM,-9999,-9999,N/A,-9999,-9999.0,North,-9999.0,-,N/A,,Unknown,0,2013-05-08 21:15:00
4:35 PM,86.0,52.2,31,29.97,-9999.0,South,6.9,-,N/A,,Unknown,170,2013-05-08 21:35:00
4:55 PM,86.0,51.4,30,29.96,-9999.0,South,11.5,-,N/A,,Unknown,170,2013-05-08 21:55:00
5:15 PM,-9999,-9999,N/A,-9999,-9999.0,North,-9999.0,-,N/A,,Unknown,0,2013-05-08 22:15:00
5:35 PM,84.4,51.6,32,29.96,-9999.0,SSE,12.7,-,N/A,,Unknown,160,2013-05-08 22:35:00
5:55 PM,84.6,52.3,33,29.96,-9999.0,SSE,11.5,-,N/A,,Unknown,160,2013-05-08 22:55:00
6:35 PM,82.9,54.9,38,29.95,-9999.0,North,-9999.0,-,N/A,,Unknown,0,2013-05-08 23:35:00
6:55 PM,81.7,55.6,41,29.95,-9999.0,SE,9.2,-,N/A,,Unknown,140,2013-05-08 23:55:00
7:35 PM,79.9,56.5,45,29.95,-9999.0,North,-9999.0,-,N/A,,Unknown,0,2013-05-09 00:35:00
7:55 PM,77.9,55.8,46,29.94,-9999.0,SE,9.2,-,N/A,,Unknown,130,2013-05-09 00:55:00
8:15 PM,76.8,55.6,48,29.95,-9999.0,SE,6.9,-,N/A,,Unknown,140,2013-05-09 01:15:00
8:35 PM,-9999,-9999,N/A,-9999,-9999.0,North,-9999.0,-,N/A,,Unknown,0,2013-05-09 01:35:00
8:55 PM,74.8,56.3,52,29.95,-9999.0,ESE,6.9,-,N/A,,Unknown,120,2013-05-09 01:55:00
9:15 PM,74.8,55.8,51,29.95,-9999.0,SE,10.4,-,N/A,,Unknown,130,2013-05-09 02:15:00
9:35 PM,-9999,-9999,N/A,-9999,-9999.0,North,-9999.0,-,N/A,,Unknown,0,2013-05-09 02:35:00
10:15 PM,73.0,55.4,54,29.95,-9999.0,SSE,9.2,-,N/A,,Unknown,150,2013-05-09 03:15:00
10:35 PM,-9999,-9999,N/A,-9999,-9999.0,North,-9999.0,-,N/A,,Unknown,0,2013-05-09 03:35:00
10:55 PM,72.0,56.3,58,29.97,-9999.0,SSE,6.9,-,N/A,,Unknown,150,2013-05-09 03:55:00
11:55 PM,70.2,56.8,63,29.98,-9999.0,South,9.2,-,N/A,,Unknown,170,2013-05-09 04:55:00